Hourly Data Report for September 03, 2017

All times are specified in Local Standard Time (LST). Add 1 hour to adjust for Daylight Saving Time where and when it is observed.

KUGAARUK CLIMATE
NUNAVUT

68°32'15.060" N
89°47'47.020" W
15.80 m
2303094
71407
NBB

Download Data

Hourly Data (September 2017)
Hourly Data Report for September 3, 2017
Temp Definition
°C
Dew Point Temp Definition
°C
Rel Hum Definition
%
Wind Dir Definition
10's deg

Wind Spd Definition
km/h
Visibility Definition
km
Stn Press Definition
kPa
Hmdx Definition


Wind Chill Definition


Weather Definition


TIME
00:00 -0.1 -0.9 95 3 18   101.08   -5 LegendNANA
01:00 -0.7 -1.4 95 3 19   101.08   -6 LegendNANA
02:00 -0.9 -1.9 93 3 19   101.09   -6 LegendNANA
03:00 -1.1 -1.9 94 4 16   101.10   -6 LegendNANA
04:00 -1.0 -1.9 93 4 16   101.10   -6 LegendNANA
05:00 -0.9 -1.5 95 5 17   101.11   -6 LegendNANA
06:00 -0.7 -1.3 96 3 14   101.13   -5 LegendNANA
07:00 -0.3 -0.9 96 2 13   101.14   -4 LegendNANA
08:00 0.0 -0.6 96 3 16   101.15   -5 LegendNANA
09:00 1.5 0.1 90 4 18   101.11     LegendNANA
10:00 2.1 0.6 90 2 18   101.10     LegendNANA
11:00 2.6 0.2 84 2 23   101.09     LegendNANA
12:00 3.1 -0.1 80 2 25   101.12     LegendNANA
13:00 3.2 -0.6 76 1 24   101.17     LegendNANA
14:00 2.6 -1.8 73 2 25   101.21     LegendNANA
15:00 1.9 -2.2 74 1 27   101.24     LegendNANA
16:00 1.2 -1.9 80 1 22   101.28     LegendNANA
17:00 1.0 -2.1 79 2 20   101.30     LegendNANA
18:00 0.7 -2.1 81 1 18   101.34     LegendNANA
19:00 -0.1 -2.6 83 5 9   101.35   -3 LegendNANA
20:00 -0.7 -2.7 86 3 5   101.35   -2 LegendNANA
21:00 -0.9 -2.7 88 2 7   101.35   -3 LegendNANA
22:00 -0.9 -2.8 87 3 2   101.36   -2 LegendNANA
23:00 -1.5 -3.3 87 34 1   101.38   -2 LegendNANA

Notes on Data Quality.

Legend

  • E = Estimated
  • M = Missing
  • NA = Not Available
  • ‡ = Partner data that is not subject to review by the National Climate Archives
Date modified: